Overview Statistics Trail Chart Weather Telemetry Raw packets
 

This is the latest recevied weather packets stored in our database for station/object KC4GS-13. If no packets are shown the sender has not sent any weather packets the latest 10 day(s).

<< 109 110 111 112 113 114 >>
Time Temp. Humidity Pressure Rain* Wind** Luminosity Snow
1787793350 23.33° C 98% 1016.6 hPa 0 mm - 0 W/m² -
1787793045 23.89° C 98% 1016.4 hPa 0 mm - 0 W/m² -
1787792740 23.89° C 98% 1016.4 hPa 0 mm - 0 W/m² -
1787792439 23.89° C 98% 1016.5 hPa 0 mm - 0 W/m² -
1787792137 24.44° C 98% 1016.3 hPa 0 mm - 0 W/m² -
1787791836 24.44° C 98% 1016.4 hPa 0 mm - 0 W/m² -
1787791531 23.89° C 98% 1016.4 hPa 0 mm - 0 W/m² -
1787791226 23.89° C 98% 1016.6 hPa 0 mm - 0 W/m² -
1787790922 23.89° C 98% 1016.6 hPa 0 mm - 0 W/m² -
1787790617 24.44° C 97% 1016.5 hPa 0 mm - 0 W/m² -
1787790317 24.44° C 98% 1016.6 hPa 0 mm - 0 W/m² -
1787790012 23.89° C 97% 1016.6 hPa 0 mm - 0 W/m² -
1787789708 23.89° C 97% 1016.7 hPa 0 mm - 0 W/m² -
1787789403 23.89° C 97% 1016.4 hPa 0 mm - 0 W/m² -
1787789097 24.44° C 97% 1016.1 hPa 0 mm - 0 W/m² -
1787788795 24.44° C 97% 1016.2 hPa 0 mm - 0 W/m² -
1787788489 24.44° C 97% 1016.3 hPa 0 mm - 2 W/m² -
1787788189 24.44° C 97% 1016.1 hPa 0 mm - 3 W/m² -
1787787884 25° C 97% 1016.3 hPa 0 mm - 4 W/m² -
1787787579 24.44° C 97% 1016.4 hPa 0 mm - 5 W/m² -
1787787273 24.44° C 97% 1016.4 hPa 0 mm - 8 W/m² -
1787786972 24.44° C 96% 1016.5 hPa 0 mm - 13 W/m² -
1787786668 24.44° C 96% 1016.4 hPa 0 mm - 22 W/m² -
1787786367 24.44° C 96% 1016.3 hPa 0 mm - 26 W/m² -
1787786063 24.44° C 96% 1016.5 hPa 0 mm - 23 W/m² -

* Rain latest hour (hover to see other rain measurements)
** Current wind speed in m/s (hover to see current wind gust speed)